{"data":{"norad_id":54781,"epoch":"2026-05-24T23:04:43.639680Z","epoch_age_seconds":75454,"freshness":"FRESH","line1":"1 54781U 22175Z   26144.96161620 -.00001391  00000+0 -69297-4 0  9992","line2":"2 54781  53.2135  46.7375 0001492  67.9123 292.2028 15.08844156191640","mean_motion":15.08844156,"eccentricity":0.0001492,"inclination_deg":53.2135,"raan_deg":46.7375,"arg_perigee_deg":67.9123,"mean_anomaly_deg":292.2028,"bstar":-6.9297e-5,"rev_number":19164,"period_min":95.437291802057,"perigee_km":538.69853990518,"apogee_km":540.76283162261,"semimajor_km":6917.8676857639,"source":"CELESTRAK","updated_at":"2026-05-25T13:38:17.692840Z"}}